Regional Weather Roundup
Issued by NWS Green Bay, WI

Home | Current Version | Previous Version | Text Only | Print | Product List | Glossary On
Versions: 1 2 3 4 5 6 7 8 9 10 11 12 13 14 15 16 17 18 19 20 21 22 23 24 25 26 27 28 29 30 31 32 33 34 35 36 37 38 39 40 41 42 43 44 45 46 47 48 49 50
000
ASUS43 KGRB 230259
RWRGRB

NORTH-CENTRAL AND NORTHEAST WISCONSIN REGIONAL WEATHER ROUNDUP
NATIONAL WEATHER SERVICE GREEN BAY WI
900 PM CST SAT NOV 22 2014

WIZ005-009-010>012-018-019-230400-
NORTH CENTRAL WISCONSIN

CITY           SKY/WX    TMP DP  RH WIND       PRES   REMARKS
IRONWOOD       CLOUDY    34  32  93 S8        29.63S
MANITOWISH WTR NOT AVBL
ARBOR VITAE    NOT AVBL
EAGLE RIVER    NOT AVBL
LAND O LAKES   NOT AVBL
RHINELANDER    CLOUDY    34  33  96 S10       29.69S FOG
PHILLIPS       CLOUDY    33  33  99 S7        29.66S FOG
ANTIGO         NOT AVBL
TOMAHAWK       NOT AVBL
MERRILL        NOT AVBL
$$

WIZ013-073-230400-
NORTHEAST WISCONSIN

CITY           SKY/WX    TMP DP  RH WIND       PRES   REMARKS
IRON MOUNTAIN  CLOUDY    35  31  85 S5        29.71R
MARINETTE      CLOUDY    37  36  93 SW6       29.76F VSB 1
$$

WIZ017-030-035>037-045-230400-
CENTRAL WISCONSIN

CITY           SKY/WX    TMP DP  RH WIND       PRES   REMARKS
MEDFORD        NOT AVBL
WAUSAU         CLOUDY    36  36 100 CALM      29.70F FOG
MOSINEE        SNOW      36  36 100 SE5       29.72F VSB 1/4
MARSHFIELD     FOG       36  36 100 SE7       29.70F VSB 1/4
WISC RAPIDS    CLOUDY    38  36  92 SE6       29.74S
STEVENS POINT  NOT AVBL
WAUPACA        NOT AVBL
SHAWANO        NOT AVBL
CLINTONVILLE   NOT AVBL
$$

WIZ038-039-048-051-230400-
FOX VALLEY

CITY           SKY/WX    TMP DP  RH WIND       PRES   REMARKS
NWS GREEN BAY  FOG       39  38  96 CALM      29.78R VSB 1
APPLETON       NOT AVBL
OSHKOSH        CLOUDY    41  39  93 S3        29.77S FOG
FOND DU LAC    CLOUDY    43  41  93 S8        29.77S FOG
$$

WIZ022-050-052-230400-
EAST CENTRAL WISCONSIN

CITY           SKY/WX    TMP DP  RH WIND       PRES   REMARKS
STURGEON BAY   CLOUDY    39  36  87 SW6       29.78S
MANITOWOC      NOT AVBL
SHEBOYGAN      CLOUDY    43  41  93 S6        29.78F
$$

LMZ563-521-522-541>543-230400-
LAKESHORE

STATION/POSITION TIME  TEMP    WIND        PRES    VSBY  WAVE
                       AIR SEA DIR/SP/G                  HT/PER
                 (UTC) (F)     (DEG/KT/KT) (MB)    (MI)  (FT/S)
SHEBOYGAN LKSHOR 0200   44 36  170/ 10/ 11 1009.8F
KEWAUNEE LKSHORE 0200   40     210/  4/  5 1007.9F
TWO RIVERS CG    0200   40 39              1009.0          3
NORTHPORT PIER   0200   37     190/  1/  4 1008.5R
N MID LAKE BUOY  0200   40 42  240/ 14/ 16 1008.2F         5/ 7
CHAMBERS ISLAND  0200   37     210/ 10/ 15 1008.8R
MENOMINEE LKSHOR 0200   37     220/  7/ 12 1008.8R
$$


USA.gov is the U.S. government's official web portal to all federal, state and local government web resources and services.